| time (UTC) | temp C | wind direction | speed KPH | gust KPH | rain 1hr cm | rain 24hr cm | rain mn cm | humidity % | barometer mb |
| 20260906224517 | 28 | 42 | 9.7 | 14.5 | 0.00 | 0.00 | 0.00 | 33 | 1002.8 |
| 20260906223017 | 28 | 31 | 12.9 | 17.7 | 0.00 | 0.00 | 0.00 | 33 | 1002.9 |
| 20260906221558 | 28 | 63 | 4.8 | 9.7 | 0.00 | 0.00 | 0.00 | 32 | 1003.2 |
| 20260906220105 | 28 | 63 | 4.8 | 11.3 | 0.00 | 0.00 | 0.00 | 33 | 1003.5 |
| 20260906214534 | 27 | 100 | 3.2 | 17.7 | 0.00 | 0.00 | 0.00 | 34 | 1003.8 |
| 20260906213035 | 27 | 122 | 8.0 | 14.5 | 0.00 | 0.00 | 0.00 | 34 | 1004.0 |
| 20260906211513 | 27 | 24 | 8.0 | 16.1 | 0.00 | 0.00 | 0.00 | 35 | 1004.1 |
| 20260906210019 | 27 | 128 | 8.0 | 12.9 | 0.00 | 0.00 | 0.00 | 36 | 1004.2 |
| 20260906204551 | 26 | 140 | 8.0 | 16.1 | 0.00 | 0.00 | 0.00 | 37 | 1004.5 |
| 20260906203049 | 26 | 132 | 8.0 | 17.7 | 0.00 | 0.00 | 0.00 | 37 | 1004.6 |
| 20260906201530 | 26 | 103 | 8.0 | 17.7 | 0.00 | 0.00 | 0.00 | 37 | 1004.8 |
| 20260906200030 | 26 | 32 | 8.0 | 14.5 | 0.00 | 0.00 | 0.00 | 35 | 1005.2 |
| 20260906194507 | 26 | 54 | 11.3 | 17.7 | 0.00 | 0.00 | 0.00 | 37 | 1005.5 |
| 20260906193006 | 26 | 40 | 6.4 | 12.9 | 0.00 | 0.00 | 0.00 | 36 | 1005.9 |
| 20260906191555 | 25 | 276 | 4.8 | 9.7 | 0.00 | 0.00 | 0.00 | 38 | 1006.1 |
| 20260906190042 | 25 | 59 | 0.0 | 16.1 | 0.00 | 0.00 | 0.00 | 40 | 1006.5 |
| 20260906184522 | 25 | 117 | 6.4 | 11.3 | 0.00 | 0.00 | 0.00 | 40 | 1006.9 |
| 20260906183024 | 24 | 84 | 8.0 | 14.5 | 0.00 | 0.00 | 0.00 | 40 | 1007.1 |
| 20260906181559 | 24 | 96 | 8.0 | 14.5 | 0.00 | 0.00 | 0.00 | 41 | 1007.5 |
| 20260906180111 | 23 | 82 | 8.0 | 12.9 | 0.00 | 0.00 | 0.00 | 42 | 1007.8 |
| 20260906174538 | 23 | 104 | 6.4 | 12.9 | 0.00 | 0.00 | 0.00 | 44 | 1008.1 |
| 20260906173032 | 23 | 92 | 4.8 | 9.7 | 0.00 | 0.00 | 0.00 | 44 | 1008.1 |
| 20260906171511 | 22 | 144 | 3.2 | 11.3 | 0.00 | 0.00 | 0.00 | 47 | 1008.4 |
| 20260906170009 | 22 | 57 | 4.8 | 11.3 | 0.00 | 0.00 | 0.00 | 48 | 1008.5 |
| 20260906164549 | 22 | 105 | 3.2 | 11.3 | 0.00 | 0.00 | 0.00 | 48 | 1008.6 |
| 20260906163107 | 21 | 181 | 4.8 | 11.3 | 0.00 | 0.00 | 0.00 | 48 | 1008.8 |
| 20260906161528 | 21 | 128 | 8.0 | 12.9 | 0.00 | 0.00 | 0.00 | 49 | 1008.8 |
| 20260906160027 | 21 | 169 | 6.4 | 11.3 | 0.00 | 0.00 | 0.00 | 49 | 1008.8 |
| 20260906154507 | 20 | 194 | 1.6 | 12.9 | 0.00 | 0.00 | 0.00 | 52 | 1008.8 |
| 20260906153012 | 20 | 190 | 4.8 | 11.3 | 0.00 | 0.00 | 0.00 | 50 | 1008.9 |
| 20260906151544 | 19 | 141 | 8.0 | 11.3 | 0.00 | 0.00 | 0.00 | 51 | 1009.2 |
| 20260906150043 | 18 | 141 | 4.8 | 12.9 | 0.00 | 0.00 | 0.00 | 54 | 1009.3 |
| 20260906144520 | 18 | 150 | 4.8 | 8.0 | 0.00 | 0.00 | 0.00 | 53 | 1009.6 |
| 20260906143014 | 18 | 165 | 3.2 | 6.4 | 0.00 | 0.00 | 0.00 | 50 | 1009.8 |
| 20260906141551 | 17 | 321 | 1.6 | 4.8 | 0.00 | 0.00 | 0.00 | 53 | 1009.8 |
| 20260906140055 | 15 | 321 | 1.6 | 6.4 | 0.00 | 0.00 | 0.00 | 56 | 1009.9 |
| 20260906134531 | 14 | 177 | 1.6 | 4.8 | 0.00 | 0.00 | 0.00 | 62 | 1009.8 |
| 20260906133024 | 13 | 177 | 1.6 | 9.7 | 0.00 | 0.00 | 0.00 | 64 | 1009.7 |
| 20260906131504 | 12 | 212 | 1.6 | 6.4 | 0.00 | 0.00 | 0.00 | 63 | 1009.7 |
| 20260906130004 | 12 | 212 | 0.0 | 4.8 | 0.00 | 0.00 | 0.00 | 60 | 1009.5 |
| 20260906124542 | 12 | 212 | 1.6 | 4.8 | 0.00 | 0.00 | 0.00 | 59 | 1009.5 |
| 20260906123039 | 13 | 212 | 1.6 | 6.4 | 0.00 | 0.00 | 0.00 | 58 | 1009.4 |
| 20260906121522 | 13 | 212 | 0.0 | 4.8 | 0.00 | 0.00 | 0.00 | 59 | 1009.3 |
| 20260906120015 | 14 | 212 | 1.6 | 6.4 | 0.00 | 0.00 | 0.00 | 56 | 1009.3 |
| 20260906114558 | 14 | 212 | 0.0 | 1.6 | 0.00 | 0.00 | 0.00 | 57 | 1009.3 |
| 20260906113055 | 15 | 212 | 4.8 | 6.4 | 0.00 | 0.00 | 0.00 | 56 | 1009.5 |
| 20260906113011 | 15 | 212 | 6.4 | 6.4 | 0.00 | 0.00 | 0.00 | 56 | 1009.4 |
| 20260906111536 | 15 | 171 | 0.0 | 3.2 | 0.00 | 0.00 | 0.00 | 55 | 1009.2 |
| 20260906110034 | 16 | 360 | 0.0 | 3.2 | 0.00 | 0.00 | 0.00 | 52 | 1009.4 |
| 20260906104514 | 17 | 198 | 8.0 | 12.9 | 0.00 | 0.00 | 0.00 | 46 | 1009.4 |
| 20260906103013 | 17 | 167 | 1.6 | 14.5 | 0.00 | 0.00 | 0.00 | 45 | 1009.1 |
| 20260906101558 | 17 | 280 | 4.8 | 11.3 | 0.00 | 0.00 | 0.00 | 44 | 1009.0 |
| 20260906100055 | 17 | 273 | 8.0 | 12.9 | 0.00 | 0.00 | 0.00 | 46 | 1009.0 |
| 20260906094538 | 17 | 255 | 11.3 | 14.5 | 0.00 | 0.00 | 0.00 | 44 | 1008.9 |
| 20260906093051 | 17 | 287 | 8.0 | 9.7 | 0.00 | 0.00 | 0.00 | 46 | 1008.8 |
| 20260906091519 | 17 | 348 | 3.2 | 6.4 | 0.00 | 0.00 | 0.00 | 46 | 1008.8 |
| 20260906090019 | 17 | 292 | 6.4 | 12.9 | 0.00 | 0.00 | 0.00 | 44 | 1008.7 |
| 20260906084502 | 18 | 259 | 3.2 | 4.8 | 0.00 | 0.00 | 0.00 | 44 | 1008.9 |
| 20260906083001 | 17 | 241 | 6.4 | 11.3 | 0.00 | 0.00 | 0.00 | 45 | 1008.8 |
| 20260906081546 | 18 | 268 | 4.8 | 14.5 | 0.00 | 0.00 | 0.00 | 43 | 1008.7 |
| 20260906080053 | 18 | 329 | 4.8 | 6.4 | 0.00 | 0.00 | 0.00 | 44 | 1008.7 |
| 20260906074527 | 18 | 234 | 0.0 | 6.4 | 0.00 | 0.00 | 0.00 | 43 | 1008.9 |
| 20260906073028 | 18 | 219 | 8.0 | 12.9 | 0.00 | 0.00 | 0.00 | 42 | 1008.8 |
| 20260906071507 | 18 | 205 | 6.4 | 9.7 | 0.00 | 0.00 | 0.00 | 42 | 1008.6 |
| 20260906070007 | 18 | 302 | 4.8 | 19.3 | 0.00 | 0.00 | 0.00 | 41 | 1008.5 |
| 20260906064550 | 19 | 339 | 6.4 | 12.9 | 0.00 | 0.00 | 0.00 | 41 | 1008.6 |
| 20260906063052 | 20 | 305 | 8.0 | 17.7 | 0.00 | 0.00 | 0.00 | 40 | 1008.3 |
| 20260906061537 | 21 | 313 | 11.3 | 25.7 | 0.00 | 0.00 | 0.00 | 38 | 1008.4 |
| 20260906060031 | 21 | 355 | 16.1 | 24.1 | 0.00 | 0.00 | 0.00 | 43 | 1008.4 |
| 20260906054517 | 21 | 280 | 8.0 | 19.3 | 0.00 | 0.00 | 0.00 | 40 | 1008.3 |
| 20260906053020 | 21 | 336 | 17.7 | 27.4 | 0.00 | 0.00 | 0.00 | 40 | 1008.4 |
| 20260906051613 | 21 | 314 | 14.5 | 22.5 | 0.00 | 0.00 | 0.00 | 38 | 1008.3 |
| 20260906050055 | 22 | 9 | 16.1 | 25.7 | 0.00 | 0.00 | 0.00 | 39 | 1008.2 |
| 20260906044555 | 22 | 10 | 19.3 | 27.4 | 0.00 | 0.00 | 0.00 | 39 | 1008.3 |
| 20260906043037 | 22 | 360 | 19.3 | 29.0 | 0.00 | 0.00 | 0.00 | 38 | 1008.4 |
| 20260906041544 | 22 | 348 | 20.9 | 30.6 | 0.00 | 0.00 | 0.00 | 37 | 1008.3 |
| 20260906040017 | 22 | 360 | 19.3 | 33.8 | 0.00 | 0.00 | 0.00 | 36 | 1008.2 |
| 20260906034525 | 22 | 30 | 14.5 | 29.0 | 0.00 | 0.00 | 0.00 | 35 | 1008.1 |
| 20260906033102 | 22 | 355 | 17.7 | 32.2 | 0.00 | 0.00 | 0.00 | 36 | 1008.0 |
| 20260906031601 | 23 | 360 | 19.3 | 33.8 | 0.00 | 0.00 | 0.00 | 35 | 1007.9 |
| 20260906030041 | 23 | 18 | 22.5 | 30.6 | 0.00 | 0.00 | 0.00 | 35 | 1007.8 |
| 20260906024540 | 23 | 5 | 17.7 | 30.6 | 0.00 | 0.00 | 0.00 | 34 | 1007.5 |
| 20260906023024 | 23 | 25 | 14.5 | 24.1 | 0.00 | 0.00 | 0.00 | 33 | 1007.4 |
| 20260906021525 | 23 | 22 | 19.3 | 27.4 | 0.00 | 0.00 | 0.00 | 33 | 1007.3 |
| 20260906020005 | 23 | 9 | 14.5 | 19.3 | 0.00 | 0.00 | 0.00 | 33 | 1007.2 |
| 20260906014512 | 23 | 17 | 12.9 | 24.1 | 0.00 | 0.00 | 0.00 | 32 | 1007.1 |
| 20260906013046 | 23 | 11 | 14.5 | 20.9 | 0.00 | 0.00 | 0.00 | 32 | 1007.2 |
| 20260906011559 | 24 | 5 | 19.3 | 25.7 | 0.00 | 0.00 | 0.00 | 31 | 1007.3 |
| 20260906010029 | 25 | 22 | 19.3 | 27.4 | 0.00 | 0.00 | 0.00 | 29 | 1007.2 |
| 20260906004528 | 25 | 348 | 20.9 | 27.4 | 0.00 | 0.00 | 0.00 | 29 | 1007.2 |
| 20260906003010 | 26 | 37 | 19.3 | 29.0 | 0.00 | 0.00 | 0.00 | 27 | 1007.0 |
| 20260906001509 | 26 | 32 | 20.9 | 27.4 | 0.00 | 0.00 | 0.00 | 27 | 1007.0 |
| 20260906000051 | 26 | 16 | 17.7 | 24.1 | 0.00 | 0.00 | 0.00 | 26 | 1007.0 |
| 20260905234551 | 26 | 65 | 16.1 | 24.1 | 0.00 | 0.00 | 0.00 | 27 | 1007.1 |
| 20260905233035 | 26 | 78 | 16.1 | 24.1 | 0.00 | 0.00 | 0.00 | 27 | 1006.9 |
| 20260905231530 | 26 | 58 | 17.7 | 29.0 | 0.00 | 0.00 | 0.00 | 27 | 1007.0 |
| 20260905230012 | 26 | 80 | 19.3 | 25.7 | 0.00 | 0.00 | 0.00 | 28 | 1007.0 |